Regional Weather Roundup
Issued by NWS Cleveland, OH

Home | Current Version | Previous Version | Text Only | Print | Product List | Glossary Off
Versions: 1 2 3 4 5 6 7 8 9 10 11 12 13 14 15 16 17 18 19 20 21 22 23 24 25 26 27 28 29 30 31 32 33 34 35 36 37 38 39 40 41 42 43 44 45 46 47 48 49 50

000
ASUS41 KCLE 192310
RWRCLE
OHIO REGIONAL WEATHER ROUNDUP
NATIONAL WEATHER SERVICE WILMINGTON, OH
700 PM EDT THU APR 19 2018

NOTE: "FAIR" INDICATES FEW OR NO CLOUDS BELOW 12,000 FEET WITH NO
SIGNIFICANT WEATHER AND/OR OBSTRUCTIONS TO VISIBILITY.

OHZ001>008-015>018-024>027-034-035-043-044-200000-
   NORTHWEST OHIO

CITY           SKY/WX    TMP DP  RH WIND       PRES   REMARKS
DEFIANCE       FAIR      54  28  36 NW15      30.24R
FINDLAY        FAIR      55  21  26 NW15      30.20R
TOLEDO EXPRESS FAIR      56  19  23 NW17G24   30.21R
TOLEDO EXEC    FAIR      54  19  25 NW17G25   30.21R
LIMA           FAIR      52  27  38 NW15G23   30.23R
$$

OHZ009>014-019>023-028>033-038-089-200000-
   NORTHEAST OHIO

CITY           SKY/WX    TMP DP  RH WIND       PRES   REMARKS
CLE-HOPKINS    FAIR      44  26  49 N12       30.23R
CLE-LAKEFRONT  FAIR      40  31  70 NE9       30.21R
CUY CO. ARPT   MOSUNNY   41  28  60 N13       30.21R
LORAIN-ELYRIA  FAIR      45  25  45 N10       30.20R
ASHTABULA      FAIR      37  27  67 NW14G24   30.19R
AKRON-CANTON   FAIR      47  23  38 NW18G29   30.16R
WOOSTER        FAIR      48  26  42 NW15G21   30.18R
MANSFIELD      FAIR      50  26  39 W12       30.18R
YOUNGSTOWN     FAIR      39  27  62 NW15      30.17R
$$

OHZ042-051>053-060>062-070>072-077>081-200000-
  SOUTHWEST OHIO

CITY           SKY/WX    TMP DP  RH WIND       PRES   REMARKS
CINC-COVINGTON FAIR      54  25  32 N12       30.27R
CINC-LUNKEN    FAIR      54  29  38 N13       30.28S
HAMILTON       FAIR      55  27  34 NW12      30.28R
DAYTON         FAIR      52  28  39 NW18G25   30.26R
WRIGHT-PAT AFB FAIR      53  26  34 NW15G21   30.24R
DAYTON GENERAL FAIR      54  26  34 NW10      30.25R
WILMINGTON     FAIR      51  29  42 NW16      30.24S
$$

OHZ036-037-039>041-045>050-054>059-063>069-073>076-082>088-200000-
  CENTRAL AND SOUTHEAST OHIO

CITY           SKY/WX    TMP DP  RH WIND       PRES   REMARKS
COLUMBUS       FAIR      52  28  39 NW20      30.21R
OSU AIRPORT    FAIR      51  27  39 NW16G23   30.21R
BOLTON FIELD   SUNNY     52  30  43 NW13      30.23R
RICKENBACK AFB FAIR      51  29  42 NW10G22   30.22R
NEWARK         FAIR      50  30  46 NW15      30.20R
MARION         FAIR      50  27  40 NW15      30.20R
LANCASTER      FAIR      50  31  48 NW12      30.22R
ZANESVILLE     NOT AVBL
NEW PHILLY     FAIR      49  26  41 N15       30.18R
$$




USA.gov is the U.S. government's official web portal to all federal, state and local government web resources and services.